{"data":{"norad_id":32299,"epoch":"2026-09-19T08:26:25.985760Z","epoch_age_seconds":113522,"freshness":"FRESH","line1":"1 32299U 07057A   26262.35168965  .00000000  00000+0  00000+0 0  9993","line2":"2 32299   0.0099 162.0458 0002451  17.2891 310.3425  1.00269906 52593","mean_motion":1.00269906,"eccentricity":0.0002451,"inclination_deg":0.0099,"raan_deg":162.0458,"arg_perigee_deg":17.2891,"mean_anomaly_deg":310.3425,"bstar":0,"rev_number":5259,"period_min":1436.1238156541,"perigee_km":35776.787016414,"apogee_km":35797.456426239,"semimajor_km":42165.258721326,"source":"CELESTRAK","updated_at":"2026-09-20T09:00:35.637904Z"}}